Location: Chamerau
(49.1969°N, 12.7525°E)
Time: 05:41:11
(UTC+00:00)

Lacrosse 5 rocket - Pass Details

Date: 18 September 2020
Orbit: 460 x 636 km, 57.0° (Epoch: 29 October)

Event Time Altitude Azimuth Distance (km) Brightness Sun altitude
Rises 21:27:12 0° 301° (WNW) 2,852 5.7 -35.3°
Reaches altitude 10° 21:29:33 10° 308° (NW) 1,971 4.8 -35.5°
Enters shadow 21:30:46 18° 315° (NW) 1,537 4.2 -35.6°
